Location: Asheville, NC
(35.6000°N, 82.5500°W)
Time: 02:44:37
(UTC-05:00)

Vanguard 3 - Pass Details

Date: 12 February 2018
Orbit: 508 x 3264 km, 33.3° (Epoch: 18 February)

Event Time Altitude Azimuth Distance (km) Brightness Sun altitude
Rises 20:31:52 0° 267° (W) 2,758 11.1 -29.5°
Reaches altitude 10° 20:33:46 10° 265° (W) 1,988 10.0 -29.9°
Enters shadow 20:37:01 52° 244° (WSW) 933 7.6 -30.5°
